DW9097 Weather Reports


Display with metric or nautical units.
time (UTC)temp
F
wind
direction
speed
MPH
gust
MPH
rain 1hr
in
rain 24hr
in
rain mn
in
humidity
%
barometer
mb
20260508005203 55 257 0.0 0.0 0.00 0.00 0.00 91 1009.3
20260508005144 55 257 0.0 0.0 0.00 0.00 0.00 91 1009.3
20260508005027 55 257 0.0 0.0 0.00 0.00 0.00 90 929.8
20260508005020 55 257 0.0 0.0 0.00 0.00 0.00 90 1009.3
20260508004902 55 258 0.0 0.0 0.00 0.00 0.00 90 1009.3
20260508004538 55 257 0.0 0.0 0.00 0.00 0.00 90 929.7
20260508004459 55 258 0.0 1.0 0.00 0.00 0.00 91 1009.3
20260508004358 55 257 0.0 1.0 0.00 0.00 0.00 91 1009.3
20260508004026 55 257 0.0 2.0 0.00 0.00 0.00 91 929.7
20260508003702 55 255 0.0 2.0 0.00 0.00 0.00 91 1009.3
20260508003650 55 257 0.0 2.0 0.00 0.00 0.00 91 1009.3
20260508003528 55 257 0.0 2.0 0.00 0.00 0.00 91 929.9
20260508003204 55 257 0.0 2.0 0.00 0.00 0.00 91 1009.5
20260508003145 55 257 0.0 2.0 0.00 0.00 0.00 91 1009.5
20260508003124 56 255 0.0 2.0 0.00 0.00 0.00 91 930.0
20260508002705 56 257 0.0 2.0 0.00 0.00 0.00 91 1009.5
20260508002700 56 257 0.0 0.0 0.00 0.00 0.00 91 1009.3
20260508002649 56 257 0.0 2.0 0.00 0.00 0.00 91 1009.5
20260508002643 56 257 0.0 0.0 0.00 0.00 0.00 91 1009.5
20260508002637 56 257 0.0 0.0 0.00 0.00 0.00 91 1009.5
20260508002526 56 257 0.0 0.0 0.00 0.00 0.00 91 929.9
20260508002231 56 257 0.0 0.0 0.00 0.00 0.00 91 1009.3
20260508002027 56 257 0.0 0.0 0.00 0.00 0.00 91 929.9
20260508001527 56 257 0.0 0.0 0.00 0.00 0.00 91 930.0
20260508001202 56 257 0.0 0.0 0.00 0.00 0.00 91 1009.3
20260508001144 56 257 0.0 0.0 0.00 0.00 0.00 91 1009.3
20260508001025 56 257 0.0 0.0 0.00 0.00 0.00 91 929.9
20260508000702 56 255 0.0 0.0 0.00 0.00 0.00 91 1009.6
20260508000643 56 258 0.0 0.0 0.00 0.00 0.00 91 1009.6
20260508000537 56 255 0.0 1.0 0.00 0.00 0.00 90 930.2
20260508000204 56 257 0.0 0.0 0.00 0.00 0.00 90 1009.9
20260508000144 56 257 0.0 0.0 0.00 0.00 0.00 90 1009.9
20260508000024 56 257 0.0 1.0 0.00 0.00 0.00 90 930.4
20260508000008 56 255 0.0 2.0 0.00 0.00 0.00 90 1009.9
20260507235902 56 255 0.0 2.0 0.00 0.00 0.00 90 1009.9
20260507235854 56 257 0.0 1.0 0.00 0.00 0.00 90 930.4
20260507235804 56 257 0.0 1.0 0.00 0.00 0.00 90 930.4
20260507235202 56 257 0.0 2.0 0.00 0.00 0.00 90 1009.9
20260507235145 56 257 0.0 2.0 0.00 0.00 0.00 90 1009.9
20260507235025 56 257 0.0 1.0 0.00 0.00 0.00 90 930.4
20260507234644 56 257 0.0 0.0 0.00 0.00 0.00 90 1010.1
20260507234525 56 257 0.0 0.0 0.00 0.00 0.00 90 930.5
20260507234508 56 257 0.0 0.0 0.00 0.00 0.00 91 1010.3
20260507234253 56 257 0.0 0.0 0.00 0.00 0.00 91 930.8
20260507234142 56 257 0.0 0.0 0.00 0.00 0.00 91 1010.3
20260507234025 56 257 0.0 0.0 0.00 0.00 0.00 91 930.8
20260507233643 56 257 0.0 0.0 0.00 0.00 0.00 91 1010.5
20260507233525 56 257 0.0 0.0 0.00 0.00 0.00 91 930.7
20260507233243 56 257 0.0 1.0 0.00 0.00 0.00 91 930.7
20260507233144 56 257 0.0 1.0 0.00 0.00 0.00 91 1010.4
20260507233129 56 257 0.0 1.0 0.00 0.00 0.00 91 930.7
20260507232653 56 255 0.0 1.0 0.00 0.00 0.00 91 1010.3
20260507232643 56 257 0.0 1.0 0.00 0.00 0.00 91 1010.3
20260507232527 56 257 0.0 1.0 0.00 0.00 0.00 91 930.7
20260507232248 56 257 0.0 2.0 0.00 0.00 0.00 91 930.7
20260507232144 56 257 0.0 2.0 0.00 0.00 0.00 91 1010.3
20260507232024 56 257 0.0 2.0 0.00 0.00 0.00 91 930.7
20260507232015 56 257 0.0 2.0 0.00 0.00 0.00 91 1010.4
20260507231853 56 257 0.0 2.0 0.00 0.00 0.00 91 1010.4
20260507231525 56 257 0.0 2.0 0.00 0.00 0.00 91 930.6
20260507231240 56 257 0.0 0.0 0.00 0.00 0.00 91 930.7
20260507231143 56 257 0.0 0.0 0.00 0.00 0.00 91 1010.4
20260507231129 56 257 0.0 0.0 0.00 0.00 0.00 91 930.7
20260507231017 56 257 0.0 2.0 0.00 0.00 0.00 91 1010.9
20260507231009 56 257 0.0 2.0 0.00 0.00 0.00 91 1011.1
20260507230840 56 257 0.0 1.0 0.00 0.00 0.00 91 1010.5
20260507230526 56 257 0.0 0.0 0.00 0.00 0.00 91 931.0
20260507230444 56 257 0.0 2.0 0.00 0.00 0.00 91 1010.9
20260507230022 56 257 0.0 2.0 0.00 0.00 0.00 91 931.5
20260507225747 56 257 0.0 2.0 0.00 0.00 0.00 91 931.5
20260507225629 56 257 0.0 2.0 0.00 0.00 0.00 91 931.5
20260507225252 56 257 0.0 4.0 0.00 0.00 0.00 91 931.4
20260507225142 56 257 0.0 4.0 0.00 0.00 0.00 91 1011.0
20260507225023 56 257 0.0 4.0 0.00 0.00 0.00 91 931.4
20260507224742 56 257 0.0 4.0 0.00 0.00 0.00 91 931.7
20260507224641 56 257 0.0 4.0 0.00 0.00 0.00 91 1011.2
20260507224631 56 257 0.0 4.0 0.00 0.00 0.00 91 931.7
20260507224146 56 264 1.0 4.0 0.00 0.00 0.00 91 1011.6
20260507224142 56 264 1.0 4.0 0.00 0.00 0.00 91 1011.7
20260507224023 56 262 3.0 4.0 0.00 0.00 0.00 91 932.0
20260507223900 56 333 0.0 0.0 0.00 0.00 0.00 91 931.7
20260507223800 56 333 0.0 0.0 0.00 0.00 0.00 91 931.7
20260507223642 56 217 0.0 0.0 0.00 0.00 0.00 91 1011.4
20260507223143 56 333 0.0 0.0 0.00 0.00 0.00 91 1011.0
20260507223024 56 333 0.0 0.0 0.00 0.00 0.00 91 931.3
20260507223001 56 333 0.0 0.0 0.00 0.00 0.00 91 1010.7
20260507222850 56 333 0.0 0.0 0.00 0.00 0.00 91 1010.7
20260507222525 56 333 0.0 0.0 0.00 0.00 0.00 92 930.8
20260507222142 56 333 0.0 0.0 0.00 0.00 0.00 92 1010.5
20260507222024 56 333 0.0 0.0 0.00 0.00 0.00 92 930.7
20260507221745 56 333 0.0 0.0 0.00 0.00 0.00 92 930.9
20260507221641 56 333 0.0 0.0 0.00 0.00 0.00 92 1010.5
20260507221631 56 333 0.0 0.0 0.00 0.00 0.00 92 930.9
20260507221508 56 331 0.0 0.0 0.00 0.00 0.00 92 1010.6
20260507221351 56 331 0.0 0.0 0.00 0.00 0.00 92 1010.6
20260507221022 56 333 0.0 0.0 0.00 0.00 0.00 92 930.7
20260507220642 56 333 0.0 0.0 0.00 0.00 0.00 92 1010.1
20260507220631 56 331 0.0 0.0 0.00 0.00 0.00 92 1010.1
20260507220523 56 333 0.0 0.0 0.00 0.00 0.00 92 930.5
20260507220252 56 333 0.0 0.0 0.00 0.00 0.00 92 930.4
20260507220133 56 333 0.0 0.0 0.00 0.00 0.00 92 1010.1
20260507220022 56 333 0.0 0.0 0.00 0.00 0.00 92 930.4
20260507220013 56 333 0.0 0.0 0.00 0.00 0.00 92 930.5
20260507215632 56 333 0.0 0.0 0.00 0.00 0.00 92 1010.1
20260507215523 56 333 0.0 0.0 0.00 0.00 0.00 92 930.5
20260507215140 56 333 0.0 0.0 0.00 0.00 0.00 92 1010.1
20260507215133 56 333 0.0 0.0 0.00 0.00 0.00 92 1010.0
20260507215022 56 333 0.0 0.0 0.00 0.00 0.00 92 930.4
20260507215001 56 333 0.0 0.0 0.00 0.00 0.00 92 1009.9
20260507214843 56 333 0.0 0.0 0.00 0.00 0.00 92 1009.9
20260507214524 56 333 0.0 0.0 0.00 0.00 0.00 92 930.3
20260507214342 56 333 0.0 0.0 0.00 0.00 0.00 92 1010.1
20260507214245 56 333 0.0 0.0 0.00 0.00 0.00 92 1010.1
20260507214021 56 333 0.0 0.0 0.00 0.00 0.00 92 930.5
20260507213632 56 333 0.0 0.0 0.00 0.00 0.00 92 1010.1
20260507213524 56 333 0.0 0.0 0.00 0.00 0.00 92 930.4
20260507213141 56 333 0.0 0.0 0.00 0.00 0.00 92 1009.9
20260507213132 56 333 0.0 0.0 0.00 0.00 0.00 92 1009.8
20260507213021 56 333 0.0 0.0 0.00 0.00 0.00 92 930.3
20260507212854 56 333 0.0 0.0 0.00 0.00 0.00 92 930.5
20260507212750 56 333 0.0 0.0 0.00 0.00 0.00 92 930.5
20260507212639 56 333 0.0 0.0 0.00 0.00 0.00 92 1010.0
20260507212632 56 331 0.0 0.0 0.00 0.00 0.00 92 1010.0
20260507212445 56 333 0.0 0.0 0.00 0.00 0.00 92 1010.1
20260507212345 56 333 0.0 0.0 0.00 0.00 0.00 92 1010.1
20260507212022 56 333 0.0 0.0 0.00 0.00 0.00 92 930.5
20260507211631 56 333 0.0 0.0 0.00 0.00 0.00 92 1010.1
20260507211523 56 333 0.0 0.0 0.00 0.00 0.00 92 930.5
20260507211241 56 333 0.0 0.0 0.00 0.00 0.00 92 930.1
20260507211139 56 333 0.0 0.0 0.00 0.00 0.00 92 1009.7
20260507211133 56 333 0.0 0.0 0.00 0.00 0.00 92 1009.8
20260507211128 56 333 0.0 0.0 0.00 0.00 0.00 92 930.1
20260507210922 56 333 0.0 0.0 0.00 0.00 0.00 92 1010.0
20260507210749 56 333 0.0 0.0 0.00 0.00 0.00 92 1009.8
20260507210743 56 333 0.0 0.0 0.00 0.00 0.00 92 1009.9
20260507210523 56 333 0.0 0.0 0.00 0.00 0.00 92 930.3
20260507210132 56 333 0.0 0.0 0.00 0.00 0.00 92 1009.9
20260507210022 56 333 0.0 0.0 0.00 0.00 0.00 92 930.4
20260507205743 56 333 0.0 0.0 0.00 0.00 0.00 92 929.9
20260507205631 56 333 0.0 0.0 0.00 0.00 0.00 92 1009.4
20260507205629 56 333 0.0 0.0 0.00 0.00 0.00 92 929.9
20260507205239 56 333 0.0 0.0 0.00 0.00 0.00 92 930.0
20260507205141 56 333 0.0 0.0 0.00 0.00 0.00 92 1009.4
20260507205131 56 333 0.0 0.0 0.00 0.00 0.00 92 1009.5
20260507205129 56 333 0.0 0.0 0.00 0.00 0.00 92 930.0
20260507205019 56 333 0.0 0.0 0.00 0.00 0.00 91 1009.9
20260507204846 56 333 0.0 0.0 0.00 0.00 0.00 91 1009.8
20260507204523 56 333 0.0 0.0 0.00 0.00 0.00 92 930.4
20260507204459 56 333 0.0 0.0 0.00 0.00 0.00 91 1010.1
20260507204342 56 333 0.0 0.0 0.00 0.00 0.00 91 1010.0
20260507204116 56 333 0.0 0.0 0.00 0.00 0.00 91 930.8
20260507204020 56 331 0.0 0.0 0.00 0.00 0.00 91 930.5
20260507203755 56 333 0.0 0.0 0.00 0.00 0.00 91 930.8
20260507203633 56 333 0.0 0.0 0.00 0.00 0.00 91 1010.4
20260507203132 56 333 0.0 0.0 0.00 0.00 0.00 91 1010.6
20260507203020 56 333 0.0 0.0 0.00 0.00 0.00 91 931.0
20260507202954 56 333 0.0 0.0 0.00 0.00 0.00 91 1010.7
20260507202843 56 333 0.0 0.0 0.00 0.00 0.00 91 1010.7
20260507202749 56 333 0.0 0.0 0.00 0.00 0.00 91 930.9
20260507202628 56 333 0.0 0.0 0.00 0.00 0.00 91 930.9
20260507202246 56 333 0.0 0.0 0.00 0.00 0.00 91 930.8
20260507202140 56 333 0.0 0.0 0.00 0.00 0.00 91 1010.4
20260507202132 56 333 0.0 0.0 0.00 0.00 0.00 91 1010.5
20260507202021 56 333 0.0 0.0 0.00 0.00 0.00 91 930.8
20260507201750 56 333 0.0 0.0 0.00 0.00 0.00 91 930.7
20260507201633 56 333 0.0 0.0 0.00 0.00 0.00 91 1010.5
20260507201525 56 333 0.0 0.0 0.00 0.00 0.00 91 930.7
20260507201509 56 333 0.0 0.0 0.00 0.00 0.00 91 1010.4
20260507201342 56 333 0.0 0.0 0.00 0.00 0.00 91 1010.4
20260507201023 56 316 0.0 0.0 0.00 0.00 0.00 91 930.7
20260507200631 56 316 0.0 0.0 0.00 0.00 0.00 91 1009.9
20260507200626 56 316 0.0 0.0 0.00 0.00 0.00 91 930.3
20260507200510 56 17 0.0 0.0 0.00 0.00 0.00 91 1009.6
20260507200240 56 11 0.0 0.0 0.00 0.00 0.00 91 930.0
20260507200133 56 17 0.0 0.0 0.00 0.00 0.00 91 1009.6
20260507200127 56 11 0.0 0.0 0.00 0.00 0.00 91 930.0
20260507195945 56 0 0.0 0.0 0.00 0.00 0.00 91 1009.5
20260507195826 56 0 0.0 0.0 0.00 0.00 0.00 91 1009.5
20260507195522 56 11 0.0 0.0 0.00 0.00 0.00 91 929.9
20260507195237 56 0 0.0 0.0 0.00 0.00 0.00 91 930.0
20260507195125 56 0 0.0 0.0 0.00 0.00 0.00 91 930.0
20260507195108 56 0 0.0 0.0 0.00 0.00 0.00 91 1009.5
20260507194632 56 6 0.0 0.0 0.00 0.00 0.00 91 1009.8
20260507194606 56 4 0.0 0.0 0.00 0.00 0.00 91 1009.8
20260507194521 56 8 0.0 0.0 0.00 0.00 0.00 91 930.2
20260507194104 56 4 0.0 0.0 0.00 0.00 0.00 91 1009.8
20260507194020 56 4 0.0 0.0 0.00 0.00 0.00 91 930.2
20260507193928 56 4 0.0 0.0 0.00 0.00 0.00 91 1009.8
20260507193821 56 4 0.0 0.0 0.00 0.00 0.00 91 1009.8
20260507193522 56 4 0.0 0.0 0.00 0.00 0.00 91 930.2
20260507193107 56 0 0.0 0.0 0.00 0.00 0.00 91 1009.7
20260507193019 56 0 0.0 0.0 0.00 0.00 0.00 91 930.1
20260507192846 56 0 0.0 0.0 0.00 0.00 0.00 91 930.1
20260507192759 56 0 0.0 0.0 0.00 0.00 0.00 91 930.1
20260507192603 56 0 0.0 0.0 0.00 0.00 0.00 91 1009.7
20260507192424 56 16 0.0 2.0 0.00 0.00 0.00 91 1009.6
20260507192317 56 16 0.0 1.0 0.00 0.00 0.00 91 1009.6
20260507192020 56 13 0.0 4.0 0.00 0.00 0.00 91 930.2
20260507191603 56 14 0.0 6.0 0.00 0.00 0.00 91 1009.6
20260507191521 56 21 0.0 4.0 0.00 0.00 0.00 91 930.1
20260507191309 56 350 0.0 2.0 0.00 0.00 0.00 91 930.1
20260507191107 56 348 2.0 6.0 0.00 0.00 0.00 91 1009.5
20260507191103 56 347 2.0 6.0 0.00 0.00 0.00 91 1009.5
20260507191032 56 350 0.0 2.0 0.00 0.00 0.00 91 930.1
20260507190604 56 358 0.0 2.0 0.00 0.00 0.00 91 1009.5
20260507190519 56 0 0.0 2.0 0.00 0.00 0.00 91 930.0
20260507190446 56 355 1.0 2.0 0.00 0.00 0.00 91 1009.5
20260507190314 56 355 1.0 2.0 0.00 0.00 0.00 91 1009.5
20260507190018 56 354 1.0 2.0 0.00 0.00 0.00 91 930.1
20260507185607 56 358 0.0 0.0 0.00 0.00 0.00 91 1009.7
20260507185602 56 1 0.0 0.0 0.00 0.00 0.00 91 1009.7
20260507185521 56 0 0.0 0.0 0.00 0.00 0.00 91 930.1
20260507185436 56 0 0.0 0.0 0.00 0.00 0.00 91 1009.6
20260507185314 56 0 0.0 0.0 0.00 0.00 0.00 91 1009.6
20260507185018 56 13 0.0 0.0 0.00 0.00 0.00 91 929.9
20260507184603 56 3 0.0 0.0 0.00 0.00 0.00 90 1009.6
20260507184521 56 0 0.0 0.0 0.00 0.00 0.00 90 930.0
20260507184103 56 0 0.0 0.0 0.00 0.00 0.00 90 1009.6
20260507184018 56 0 0.0 0.0 0.00 0.00 0.00 90 930.0
20260507183603 56 0 0.0 0.0 0.00 0.00 0.00 90 1009.4
20260507183520 56 0 0.0 0.0 0.00 0.00 0.00 90 929.8
20260507183103 56 0 0.0 2.0 0.00 0.00 0.00 90 1009.3
20260507183019 56 0 0.0 2.0 0.00 0.00 0.00 90 929.7
20260507182603 56 348 0.0 4.0 0.00 0.00 0.00 90 1009.1
20260507182519 56 4 0.0 3.0 0.00 0.00 0.00 90 929.7
20260507182306 56 0 1.0 3.0 0.00 0.00 0.00 90 929.6
20260507182102 56 0 1.0 4.0 0.00 0.00 0.00 90 1009.1
20260507182032 56 0 1.0 3.0 0.00 0.00 0.00 90 929.6
20260507181626 56 13 0.0 3.0 0.00 0.00 0.00 90 929.7
20260507181603 56 354 0.0 3.0 0.00 0.00 0.00 90 1009.2
20260507181421 56 353 0.0 6.0 0.00 0.00 0.00 90 1009.3
20260507181057 56 353 0.0 6.0 0.00 0.00 0.00 90 1009.3
20260507181018 56 0 0.0 6.0 0.00 0.00 0.00 90 929.7
20260507180612 56 4 2.0 6.0 0.00 0.00 0.00 89 1009.2
20260507180606 56 4 2.0 6.0 0.00 0.00 0.00 89 1009.2
20260507180520 56 1 3.0 6.0 0.00 0.00 0.00 89 929.7
20260507180124 56 17 2.0 4.0 0.00 0.00 0.00 89 929.7
20260507180103 56 51 2.0 5.0 0.00 0.00 0.00 89 1009.3
20260507180058 56 49 3.0 5.0 0.00 0.00 0.00 89 1009.3
20260507175608 56 20 2.0 5.0 0.00 0.00 0.00 89 1009.2
20260507175600 56 20 2.0 5.0 0.00 0.00 0.00 89 1009.2
20260507175518 56 20 3.0 5.0 0.00 0.00 0.00 89 929.6
20260507175420 56 281 3.0 5.0 0.00 0.00 0.00 89 1009.0
20260507175307 56 281 3.0 5.0 0.00 0.00 0.00 89 1009.0
20260507175018 57 281 3.0 5.0 0.00 0.00 0.00 88 929.5
20260507174603 57 13 2.0 4.0 0.00 0.00 0.00 88 1008.9
20260507174555 57 23 2.0 4.0 0.00 0.00 0.00 88 1008.9
20260507174519 57 0 3.0 4.0 0.00 0.00 0.00 88 929.4
20260507174240 57 48 1.0 3.0 0.00 0.00 0.00 87 929.1
20260507174122 57 48 1.0 3.0 0.00 0.00 0.00 87 929.1
20260507174102 57 0 2.0 4.0 0.00 0.00 0.00 88 1008.5
20260507174053 57 347 1.0 4.0 0.00 0.00 0.00 88 1008.5
20260507173738 57 0 0.0 0.0 0.00 0.00 0.00 87 929.2
20260507173629 57 0 0.0 0.0 0.00 0.00 0.00 87 929.2
20260507173603 57 18 0.0 0.0 0.00 0.00 0.00 87 1008.6
20260507173552 57 0 0.0 0.0 0.00 0.00 0.00 87 1008.6
20260507173111 57 0 0.0 3.0 0.00 0.00 0.00 87 1008.6
20260507173038 57 37 0.0 3.0 0.00 0.00 0.00 87 1008.6
20260507173015 57 0 0.0 3.0 0.00 0.00 0.00 87 929.1
20260507172755 57 0 0.0 5.0 0.00 0.00 0.00 87 929.2
20260507172635 57 0 0.0 5.0 0.00 0.00 0.00 87 929.2
20260507172608 57 0 0.0 5.0 0.00 0.00 0.00 87 1008.6
20260507172538 57 31 1.0 5.0 0.00 0.00 0.00 87 1008.6
20260507172409 57 24 3.0 5.0 0.00 0.00 0.00 87 1008.9
20260507172256 57 7 3.0 5.0 0.00 0.00 0.00 87 1008.9
20260507172251 57 20 3.0 5.0 0.00 0.00 0.00 87 929.4
20260507172017 57 20 3.0 5.0 0.00 0.00 0.00 87 929.4
20260507171753 57 0 2.0 4.0 0.00 0.00 0.00 87 929.5
20260507171604 57 0 2.0 5.0 0.00 0.00 0.00 87 1009.1
20260507171539 57 0 2.0 5.0 0.00 0.00 0.00 87 1009.1
20260507171522 57 0 2.0 4.0 0.00 0.00 0.00 87 929.5
20260507171103 57 0 2.0 5.0 0.00 0.00 0.00 87 1009.3
20260507171034 57 3 2.0 4.0 0.00 0.00 0.00 87 1009.3
20260507171020 57 16 2.0 4.0 0.00 0.00 0.00 87 929.8
20260507170602 57 0 2.0 6.0 0.00 0.00 0.00 87 1009.5
20260507170537 57 16 2.0 6.0 0.00 0.00 0.00 87 1009.5
20260507170530 57 0 2.0 6.0 0.00 0.00 0.00 87 929.6
20260507170517 57 28 2.0 6.0 0.00 0.00 0.00 87 929.9
20260507170104 57 0 2.0 6.0 0.00 0.00 0.00 87 1009.2
20260507170036 57 1 2.0 6.0 0.00 0.00 0.00 87 1009.2
20260507170020 57 0 2.0 6.0 0.00 0.00 0.00 87 929.6
20260507165925 58 37 2.0 5.0 0.00 0.00 0.00 87 1009.6
20260507165534 58 18 2.0 4.0 0.00 0.00 0.00 87 1009.6
20260507165516 58 28 2.0 5.0 0.00 0.00 0.00 87 930.1
20260507165104 58 8 1.0 4.0 0.00 0.00 0.00 87 1009.6
20260507165036 58 8 1.0 4.0 0.00 0.00 0.00 87 1009.6
20260507165017 58 8 2.0 3.0 0.00 0.00 0.00 87 930.0
20260507164606 58 0 2.0 4.0 0.00 0.00 0.00 87 1009.7
20260507164533 58 1 1.0 4.0 0.00 0.00 0.00 87 1009.6
20260507164517 58 0 1.0 3.0 0.00 0.00 0.00 87 930.1
20260507164401 58 326 2.0 6.0 0.00 0.00 0.00 88 1009.5
20260507164252 58 326 2.0 6.0 0.00 0.00 0.00 88 1009.6
20260507164016 58 324 2.0 6.0 0.00 0.00 0.00 88 930.1
20260507163802 57 3 3.0 6.0 0.00 0.00 0.00 88 1009.3
20260507163754 57 0 3.0 6.0 0.00 0.00 0.00 88 1009.3
20260507163653 57 323 2.0 6.0 0.00 0.00 0.00 88 1009.5
20260507163643 57 321 2.0 6.0 0.00 0.00 0.00 88 1009.5
20260507163611 57 321 2.0 6.0 0.00 0.00 0.00 88 929.9
20260507163016 57 32 3.0 6.0 0.00 0.00 0.00 88 929.8
20260507162552 57 0 3.0 6.0 0.00 0.00 0.00 88 1009.3
20260507162533 57 0 3.0 6.0 0.00 0.00 0.00 88 1009.4
20260507162517 57 14 2.0 4.0 0.00 0.00 0.00 88 929.7
20260507162033 57 0 2.0 6.0 0.00 0.00 0.00 88 1009.3
20260507162014 57 0 2.0 5.0 0.00 0.00 0.00 88 929.7
20260507161656 57 338 4.0 6.0 0.00 0.00 0.00 88 1009.1
20260507161646 57 340 4.0 6.0 0.00 0.00 0.00 88 1009.1
20260507161516 57 0 4.0 5.0 0.00 0.00 0.00 88 929.6
20260507161246 57 71 0.0 5.0 0.00 0.00 0.00 88 1009.1
20260507161015 57 24 1.0 5.0 0.00 0.00 0.00 88 929.5
20260507160544 57 0 2.0 7.0 0.00 0.00 0.00 88 1009.0
20260507160533 57 0 3.0 7.0 0.00 0.00 0.00 88 1008.9
20260507160517 57 344 3.0 7.0 0.00 0.00 0.00 88 929.3
20260507160246 57 355 3.0 7.0 0.00 0.00 0.00 88 929.6
20260507160046 57 341 3.0 7.0 0.00 0.00 0.00 88 1009.1
20260507160031 57 355 3.0 7.0 0.00 0.00 0.00 88 1009.1
20260507160017 57 355 3.0 7.0 0.00 0.00 0.00 88 929.6
20260507155735 57 3 3.0 5.0 0.00 0.00 0.00 88 929.7
20260507155638 57 353 2.0 5.0 0.00 0.00 0.00 88 929.7
20260507155624 57 3 3.0 5.0 0.00 0.00 0.00 88 929.7
20260507155545 57 341 3.0 6.0 0.00 0.00 0.00 88 1009.1
20260507155534 57 340 3.0 6.0 0.00 0.00 0.00 88 1009.2
20260507155043 57 357 2.0 6.0 0.00 0.00 0.00 88 1009.2
20260507155034 57 8 2.0 6.0 0.00 0.00 0.00 88 1009.3
20260507155015 57 353 2.0 5.0 0.00 0.00 0.00 88 929.7
20260507154547 57 27 3.0 6.0 0.00 0.00 0.00 88 1009.3
20260507154539 57 6 3.0 6.0 0.00 0.00 0.00 88 1009.3
20260507154514 57 25 3.0 5.0 0.00 0.00 0.00 88 929.8
20260507154041 57 353 3.0 6.0 0.00 0.00 0.00 88 1009.3
20260507154031 57 354 3.0 6.0 0.00 0.00 0.00 88 1009.3
20260507154013 57 355 3.0 5.0 0.00 0.00 0.00 88 929.8
20260507153911 57 343 3.0 6.0 0.00 0.00 0.00 88 1009.3
20260507153845 57 20 3.0 6.0 0.00 0.00 0.00 88 929.8
20260507153746 57 20 3.0 6.0 0.00 0.00 0.00 88 929.8
20260507153053 57 0 4.0 6.0 0.00 0.00 0.00 88 1009.4
20260507153031 57 0 3.0 6.0 0.00 0.00 0.00 88 1009.4
20260507153015 57 0 3.0 6.0 0.00 0.00 0.00 88 929.8
20260507152748 57 32 2.0 5.0 0.00 0.00 0.00 87 930.0
20260507152541 57 1 2.0 6.0 0.00 0.00 0.00 87 1009.6
20260507152532 57 0 2.0 6.0 0.00 0.00 0.00 87 1009.5
20260507152517 57 32 2.0 5.0 0.00 0.00 0.00 87 930.0
20260507152105 57 0 2.0 9.0 0.00 0.00 0.00 87 1009.5
20260507152042 57 354 3.0 5.0 0.00 0.00 0.00 87 1009.5
20260507152014 57 336 3.0 5.0 0.00 0.00 0.00 87 929.9
20260507151647 57 0 2.0 9.0 0.00 0.00 0.00 87 1009.4
20260507151518 57 0 2.0 6.0 0.00 0.00 0.00 87 929.8
20260507151013 57 0 4.0 9.0 0.00 0.00 0.00 87 929.9
20260507150844 57 20 3.0 6.0 0.00 0.00 0.00 87 1009.5
20260507150749 57 351 3.0 9.0 0.00 0.00 0.00 87 929.9
20260507150622 57 351 3.0 9.0 0.00 0.00 0.00 87 929.9
20260507150532 57 354 3.0 6.0 0.00 0.00 0.00 87 1009.5
20260507150032 57 0 3.0 6.0 0.00 0.00 0.00 88 1009.5
20260507150015 57 355 4.0 6.0 0.00 0.00 0.00 87 930.0
20260507145748 57 7 3.0 7.0 0.00 0.00 0.00 88 929.7
20260507145621 57 7 3.0 7.0 0.00 0.00 0.00 88 929.7
20260507145538 57 353 3.0 7.0 0.00 0.00 0.00 88 1009.4
20260507145534 57 353 3.0 7.0 0.00 0.00 0.00 88 1009.4
20260507145033 57 16 4.0 11.0 0.00 0.00 0.00 88 1009.1
20260507145023 57 0 4.0 11.0 0.00 0.00 0.00 88 929.8
20260507145013 57 0 4.0 11.0 0.00 0.00 0.00 88 929.6
20260507144821 57 344 4.0 10.0 0.00 0.00 0.00 88 1009.2
20260507144702 57 0 4.0 11.0 0.00 0.00 0.00 88 1009.3
20260507144658 57 355 4.0 11.0 0.00 0.00 0.00 88 1009.3
20260507144515 57 0 4.0 11.0 0.00 0.00 0.00 88 929.8
20260507144220 57 345 4.0 10.0 0.00 0.00 0.00 88 1009.2
20260507144017 57 358 4.0 5.0 0.00 0.00 0.00 88 929.7
20260507143859 57 0 4.0 9.0 0.00 0.00 0.00 87 1009.4
20260507143851 57 0 4.0 9.0 0.00 0.00 0.00 87 1009.5
20260507143642 57 23 2.0 7.0 0.00 0.00 0.00 88 1009.4
20260507143630 57 30 2.0 7.0 0.00 0.00 0.00 88 1009.4
20260507143518 57 10 2.0 6.0 0.00 0.00 0.00 88 929.9
20260507143450 57 0 4.0 7.0 0.00 0.00 0.00 88 1009.4
20260507143025 57 358 4.0 6.0 0.00 0.00 0.00 87 930.0
20260507143014 57 16 3.0 6.0 0.00 0.00 0.00 88 929.9
20260507142514 57 358 4.0 6.0 0.00 0.00 0.00 87 930.0
20260507142032 57 344 4.0 9.0 0.00 0.00 0.00 87 1009.7
20260507142013 57 10 4.0 6.0 0.00 0.00 0.00 87 930.2
20260507141533 57 0 3.0 6.0 0.00 0.00 0.00 87 1009.8
20260507141516 57 0 2.0 5.0 0.00 0.00 0.00 87 930.3
20260507141235 57 357 4.0 5.0 0.00 0.00 0.00 87 930.0
20260507141118 57 357 4.0 5.0 0.00 0.00 0.00 87 930.0
20260507141032 57 316 4.0 6.0 0.00 0.00 0.00 87 1009.6
20260507140537 57 31 0.0 5.0 0.00 0.00 0.00 86 1009.9
20260507140532 57 0 0.0 5.0 0.00 0.00 0.00 86 1009.9
20260507140514 57 343 0.0 3.0 0.00 0.00 0.00 86 930.2
20260507140344 57 14 1.0 5.0 0.00 0.00 0.00 86 1009.9
20260507140030 57 14 1.0 5.0 0.00 0.00 0.00 86 1009.9
20260507140014 57 344 1.0 3.0 0.00 0.00 0.00 86 930.3
20260507140007 57 42 0.0 10.0 0.00 0.00 0.00 86 930.4
20260507135538 57 0 0.0 10.0 0.00 0.00 0.00 86 1010.0
20260507135533 57 13 0.0 10.0 0.00 0.00 0.00 86 1010.0
20260507135513 57 42 0.0 10.0 0.00 0.00 0.00 86 930.4
20260507135032 57 13 1.0 10.0 0.00 0.00 0.00 85 1010.1
20260507135013 57 348 2.0 10.0 0.00 0.00 0.00 85 930.5
20260507134531 57 0 2.0 5.0 0.00 0.00 0.00 85 1010.1
20260507134514 57 340 2.0 4.0 0.00 0.00 0.00 85 930.5
20260507134037 57 17 0.0 7.0 0.00 0.00 0.00 85 1010.3
20260507134012 57 17 0.0 6.0 0.00 0.00 0.00 85 930.8
20260507133538 57 338 0.0 7.0 0.00 0.00 0.00 85 1010.1
20260507133534 57 336 0.0 7.0 0.00 0.00 0.00 85 1010.1
20260507133512 57 20 0.0 6.0 0.00 0.00 0.00 85 930.5
20260507133347 57 31 3.0 7.0 0.00 0.00 0.00 84 1010.0
20260507133240 57 17 3.0 7.0 0.00 0.00 0.00 84 1010.0
20260507133012 57 0 3.0 5.0 0.00 0.00 0.00 84 930.4
20260507132530 57 344 0.0 7.0 0.00 0.00 0.00 84 1009.9
20260507132514 57 357 0.0 4.0 0.00 0.00 0.00 84 930.4
20260507132357 57 0 0.0 5.0 0.00 0.00 0.00 84 1010.3
20260507132118 57 0 0.0 5.0 0.00 0.00 0.00 84 930.5
20260507132031 57 0 0.0 5.0 0.00 0.00 0.00 84 1010.3
20260507131737 58 0 0.0 5.0 0.00 0.00 0.00 83 930.8
20260507131533 58 348 0.0 5.0 0.00 0.00 0.00 83 1010.4
20260507131513 58 0 0.0 5.0 0.00 0.00 0.00 83 930.8
20260507131030 58 32 0.0 5.0 0.00 0.00 0.00 83 1010.6
20260507131011 58 20 0.0 4.0 0.00 0.00 0.00 83 930.8
20260507130531 58 350 1.0 6.0 0.00 0.00 0.00 82 1010.6
20260507130513 58 1 1.0 5.0 0.00 0.00 0.00 82 930.9
20260507130034 59 1 0.0 9.0 0.00 0.00 0.00 82 1010.9
20260507130030 59 0 0.0 9.0 0.00 0.00 0.00 82 1010.9
20260507130011 59 37 1.0 9.0 0.00 0.00 0.00 81 931.3
20260507125551 59 0 1.0 9.0 0.00 0.00 0.00 80 1010.9
20260507125532 59 17 1.0 9.0 0.00 0.00 0.00 80 1010.9
20260507125512 59 17 0.0 9.0 0.00 0.00 0.00 80 931.3
20260507125034 59 345 3.0 7.0 0.00 0.00 0.00 80 1011.0
20260507125028 59 345 3.0 7.0 0.00 0.00 0.00 81 1011.0
20260507125012 59 18 1.0 7.0 0.00 0.00 0.00 81 931.3
20260507124740 59 0 3.0 7.0 0.00 0.00 0.00 81 931.4
20260507124532 59 11 3.0 9.0 0.00 0.00 0.00 81 1011.1
20260507124036 59 6 0.0 9.0 0.00 0.00 0.00 81 1011.0
20260507124029 59 0 1.0 9.0 0.00 0.00 0.00 81 1011.0
20260507124011 59 25 0.0 7.0 0.00 0.00 0.00 81 931.3
20260507123853 59 21 2.0 10.0 0.00 0.00 0.00 80 1010.9
20260507123753 59 14 3.0 7.0 0.00 0.00 0.00 80 931.3
20260507123742 59 0 2.0 10.0 0.00 0.00 0.00 80 1010.9
20260507123520 59 14 3.0 7.0 0.00 0.00 0.00 80 931.3
20260507123029 59 0 0.0 10.0 0.00 0.00 0.00 80 1011.0
20260507123011 59 23 0.0 5.0 0.00 0.00 0.00 80 931.2
20260507122733 60 6 0.0 6.0 0.00 0.00 0.00 79 931.2
20260507122617 60 6 0.0 6.0 0.00 0.00 0.00 79 931.2
20260507122536 60 331 5.0 10.0 0.00 0.00 0.00 80 1011.0
20260507122530 60 329 5.0 10.0 0.00 0.00 0.00 80 1011.0
20260507122343 60 18 4.0 7.0 0.00 0.00 0.00 79 1011.0
20260507122028 60 0 4.0 7.0 0.00 0.00 0.00 79 1011.0
20260507122010 60 331 3.0 6.0 0.00 0.00 0.00 79 931.4
20260507121534 60 16 2.0 5.0 0.00 0.00 0.00 79 1011.2
20260507121528 60 52 2.0 5.0 0.00 0.00 0.00 79 1011.2
20260507121511 60 333 2.0 4.0 0.00 0.00 0.00 79 931.6
20260507121033 60 348 1.0 7.0 0.00 0.00 0.00 78 1011.2
20260507121029 60 1 1.0 7.0 0.00 0.00 0.00 78 1011.2
20260507121008 60 6 0.0 5.0 0.00 0.00 0.00 78 931.6
20260507120535 60 353 1.0 7.0 0.00 0.00 0.00 77 1011.1
20260507120531 60 348 1.0 7.0 0.00 0.00 0.00 77 1011.1
20260507120511 60 340 2.0 5.0 0.00 0.00 0.00 77 931.4
20260507120119 61 17 0.0 10.0 0.00 0.00 0.00 76 1011.2
20260507120010 61 0 0.0 4.0 0.00 0.00 0.00 76 931.5
20260507115740 61 320 2.0 10.0 0.00 0.00 0.00 75 1011.2
20260507115510 61 350 1.0 7.0 0.00 0.00 0.00 75 931.7
20260507115339 62 23 2.0 10.0 0.00 0.00 0.00 74 1011.1
20260507115237 62 27 2.0 10.0 0.00 0.00 0.00 74 931.5
20260507115116 62 27 2.0 10.0 0.00 0.00 0.00 74 931.5
20260507115027 62 23 2.0 10.0 0.00 0.00 0.00 74 1011.1
20260507114529 62 0 0.0 11.0 0.00 0.00 0.00 73 1011.2
20260507114511 62 350 3.0 10.0 0.00 0.00 0.00 73 931.5
20260507114027 64 96 2.0 11.0 0.00 0.00 0.00 71 1011.2
20260507114010 64 0 2.0 9.0 0.00 0.00 0.00 71 931.4
20260507113528 64 45 0.0 6.0 0.00 0.00 0.00 71 1011.1
20260507113511 63 8 0.0 6.0 0.00 0.00 0.00 71 931.4
20260507113027 63 37 1.0 6.0 0.00 0.00 0.00 71 1011.1
20260507113010 63 344 3.0 6.0 0.00 0.00 0.00 71 931.5
20260507112845 63 0 2.0 6.0 0.00 0.00 0.00 70 1011.3
20260507112528 63 0 2.0 6.0 0.00 0.00 0.00 70 1011.3
20260507112523 63 0 0.0 4.0 0.00 0.00 0.00 70 931.6
20260507112028 64 44 3.0 9.0 0.00 0.00 0.00 70 1011.4
20260507112009 64 344 3.0 7.0 0.00 0.00 0.00 70 931.8
20260507111748 63 10 3.0 9.0 0.00 0.00 0.00 68 931.8
20260507111532 63 35 2.0 10.0 0.00 0.00 0.00 69 1011.4
20260507111522 63 10 3.0 9.0 0.00 0.00 0.00 68 931.8
20260507111026 64 11 2.0 10.0 0.00 0.00 0.00 66 1011.7
20260507111008 64 30 1.0 9.0 0.00 0.00 0.00 67 932.1
20260507110849 66 20 2.0 6.0 0.00 0.00 0.00 66 1011.7
20260507110738 66 20 2.0 6.0 0.00 0.00 0.00 66 1011.7
20260507110510 66 0 4.0 9.0 0.00 0.00 0.00 67 932.2
20260507110026 65 0 0.0 10.0 0.00 0.00 0.00 66 1011.9
20260507110010 65 313 0.0 10.0 0.00 0.00 0.00 64 932.2
20260507105849 66 18 4.0 10.0 0.00 0.00 0.00 65 1011.9
20260507105741 66 42 4.0 10.0 0.00 0.00 0.00 65 932.2
20260507105617 66 42 4.0 10.0 0.00 0.00 0.00 65 932.2
20260507105528 66 18 4.0 10.0 0.00 0.00 0.00 65 1011.9
20260507105027 67 323 3.0 11.0 0.00 0.00 0.00 65 1012.0
20260507105007 66 343 2.0 6.0 0.00 0.00 0.00 64 932.2
20260507104847 66 348 1.0 11.0 0.00 0.00 0.00 63 1011.9
20260507104528 66 348 1.0 11.0 0.00 0.00 0.00 63 1011.9
20260507104510 66 49 2.0 9.0 0.00 0.00 0.00 63 932.2
20260507104026 66 11 2.0 9.0 0.00 0.00 0.00 63 1012.1
20260507104009 66 45 3.0 9.0 0.00 0.00 0.00 63 932.2
20260507103528 66 23 1.0 7.0 0.00 0.00 0.00 63 1012.2
20260507103508 66 0 0.0 7.0 0.00 0.00 0.00 63 932.4
20260507103026 66 333 1.0 11.0 0.00 0.00 0.00 64 1012.1
20260507103008 66 0 1.0 10.0 0.00 0.00 0.00 64 932.4
20260507102900 65 44 4.0 11.0 0.00 0.00 0.00 62 1012.0
20260507102526 65 44 4.0 11.0 0.00 0.00 0.00 62 1012.0
20260507102509 65 1 4.0 10.0 0.00 0.00 0.00 62 932.3
20260507102025 66 338 3.0 9.0 0.00 0.00 0.00 62 1012.2
20260507102008 66 3 2.0 9.0 0.00 0.00 0.00 60 932.5
20260507101848 67 4 0.0 10.0 0.00 0.00 0.00 62 1012.0
20260507101614 67 47 1.0 9.0 0.00 0.00 0.00 59 932.2
20260507101527 67 4 0.0 10.0 0.00 0.00 0.00 62 1012.0
20260507101007 66 23 3.0 6.0 0.00 0.00 0.00 58 932.3
20260507101005 67 30 4.0 11.0 0.00 0.00 0.00 59 1012.0
20260507100509 66 48 3.0 11.0 0.00 0.00 0.00 59 1012.1
20260507100505 66 48 3.0 11.0 0.00 0.00 0.00 59 1012.1
20260507100230 66 20 2.0 9.0 0.00 0.00 0.00 57 932.4
20260507100118 66 20 2.0 9.0 0.00 0.00 0.00 57 932.4
20260507100004 65 344 4.0 9.0 0.00 0.00 0.00 60 1012.1
20260507095507 66 329 3.0 7.0 0.00 0.00 0.00 57 932.5
20260507095504 66 329 4.0 9.0 0.00 0.00 0.00 57 1012.3
20260507095007 66 0 4.0 7.0 0.00 0.00 0.00 54 932.5
20260507094508 66 31 2.0 7.0 0.00 0.00 0.00 53 932.6
20260507094504 66 345 2.0 6.0 0.00 0.00 0.00 53 1012.4
20260507094146 66 337 1.0 10.0 0.00 0.00 0.00 54 1012.5
20260507094100 65 1 1.0 9.0 0.00 0.00 0.00 53 1012.6
20260507094019 65 1 1.0 7.0 0.00 0.00 0.00 54 932.7
20260507093508 66 347 2.0 10.0 0.00 0.00 0.00 51 932.8
20260507093503 66 337 1.0 10.0 0.00 0.00 0.00 54 1012.5
20260507093007 66 345 3.0 10.0 0.00 0.00 0.00 56 932.7
20260507093004 66 347 4.0 10.0 0.00 0.00 0.00 56 1012.4
20260507092954 66 1 4.0 9.0 0.00 0.00 0.00 59 932.6
20260507092507 66 1 4.0 9.0 0.00 0.00 0.00 59 932.6
20260507092504 66 0 4.0 9.0 0.00 0.00 0.00 58 1012.4
20260507092400 67 353 3.0 9.0 0.00 0.00 0.00 58 1012.3
20260507092214 67 353 3.0 9.0 0.00 0.00 0.00 58 1012.3
20260507092018 67 353 5.0 7.0 0.00 0.00 0.00 55 932.4
20260507091507 66 306 2.0 9.0 0.00 0.00 0.00 57 932.5
20260507091504 66 0 4.0 12.0 0.00 0.00 0.00 59 1012.3
20260507091237 67 37 3.0 9.0 0.00 0.00 0.00 54 932.6
20260507091007 67 37 3.0 9.0 0.00 0.00 0.00 54 932.6
20260507090941 67 0 4.0 12.0 0.00 0.00 0.00 58 1012.4
20260507090753 67 0 0.0 10.0 0.00 0.00 0.00 52 1012.5
20260507090521 67 0 0.0 6.0 0.00 0.00 0.00 53 932.7
20260507090432 67 0 0.0 10.0 0.00 0.00 0.00 52 1012.5
20260507090007 66 351 0.0 5.0 0.00 0.00 0.00 49 932.6
20260507085932 66 0 1.0 9.0 0.00 0.00 0.00 48 1012.4
20260507085729 65 0 2.0 5.0 0.00 0.00 0.00 51 932.4
20260507085614 65 0 2.0 5.0 0.00 0.00 0.00 51 932.4
20260507085432 65 0 2.0 9.0 0.00 0.00 0.00 50 1012.2
20260507085318 66 34 3.0 6.0 0.00 0.00 0.00 46 1012.3
20260507085140 66 34 3.0 6.0 0.00 0.00 0.00 46 1012.3
20260507085006 66 0 2.0 6.0 0.00 0.00 0.00 47 932.5
20260507084506 67 310 2.0 7.0 0.00 0.00 0.00 45 932.2
20260507084432 67 28 2.0 9.0 0.00 0.00 0.00 45 1012.0
20260507084337 66 351 0.0 7.0 0.00 0.00 0.00 49 932.2
20260507084249 66 351 0.0 7.0 0.00 0.00 0.00 49 932.2
20260507084102 65 7 0.0 9.0 0.00 0.00 0.00 48 1012.3
20260507084029 66 341 0.0 9.0 0.00 0.00 0.00 48 1012.0
20260507083506 65 0 0.0 9.0 0.00 0.00 0.00 48 932.4
20260507083004 65 10 2.0 9.0 0.00 0.00 0.00 52 932.4
20260507082932 65 0 2.0 9.0 0.00 0.00 0.00 52 1012.1
20260507082755 64 341 0.0 5.0 0.00 0.00 0.00 54 1012.0
20260507082640 64 341 0.0 5.0 0.00 0.00 0.00 54 1012.0
20260507082519 64 8 1.0 5.0 0.00 0.00 0.00 54 932.2
20260507082227 64 1 1.0 7.0 0.00 0.00 0.00 55 1012.1
20260507082005 64 338 0.0 5.0 0.00 0.00 0.00 56 932.3
20260507081957 64 3 1.0 5.0 0.00 0.00 0.00 58 932.3
20260507081933 64 1 1.0 7.0 0.00 0.00 0.00 55 1012.1
20260507081742 64 0 1.0 7.0 0.00 0.00 0.00 60 1012.1
20260507081506 64 3 1.0 5.0 0.00 0.00 0.00 58 932.3
20260507081428 64 0 1.0 7.0 0.00 0.00 0.00 60 1012.1
20260507081237 64 0 3.0 6.0 0.00 0.00 0.00 56 1012.1
20260507081234 64 0 2.0 5.0 0.00 0.00 0.00 57 932.3
20260507081110 64 0 2.0 5.0 0.00 0.00 0.00 57 932.3
20260507080927 64 0 3.0 6.0 0.00 0.00 0.00 56 1012.1
20260507080510 64 16 1.0 7.0 0.00 0.00 0.00 56 932.4
20260507080440 64 0 1.0 7.0 0.00 0.00 0.00 55 1012.0
20260507080005 64 11 3.0 7.0 0.00 0.00 0.00 57 932.3
20260507075929 64 353 3.0 9.0 0.00 0.00 0.00 57 1012.1
20260507075733 64 20 3.0 7.0 0.00 0.00 0.00 58 932.3
20260507075611 64 20 3.0 7.0 0.00 0.00 0.00 58 932.3
20260507075425 64 0 4.0 9.0 0.00 0.00 0.00 57 1012.1
20260507075258 65 340 0.0 7.0 0.00 0.00 0.00 55 1012.1
20260507075134 65 340 0.0 7.0 0.00 0.00 0.00 55 1012.1
20260507075005 65 17 0.0 5.0 0.00 0.00 0.00 55 932.4
20260507074506 64 25 2.0 12.0 0.00 0.00 0.00 58 932.4
20260507074424 64 0 3.0 12.0 0.00 0.00 0.00 59 1012.1
20260507074005 64 6 2.0 12.0 0.00 0.00 0.00 57 932.5
20260507073923 64 0 2.0 12.0 0.00 0.00 0.00 55 1012.1
20260507073505 64 357 3.0 6.0 0.00 0.00 0.00 59 932.2
20260507073423 64 357 4.0 9.0 0.00 0.00 0.00 60 1011.9
20260507073230 64 0 0.0 3.0 0.00 0.00 0.00 58 932.5
20260507073110 64 0 0.0 3.0 0.00 0.00 0.00 58 932.5
20260507072924 64 0 0.0 5.0 0.00 0.00 0.00 57 1012.2
20260507072505 63 44 0.0 5.0 0.00 0.00 0.00 60 932.7
20260507072422 63 338 0.0 5.0 0.00 0.00 0.00 59 1012.2
20260507072029 63 0 3.0 6.0 0.00 0.00 0.00 63 932.6
20260507072017 63 347 0.0 6.0 0.00 0.00 0.00 61 932.4
20260507071924 63 357 2.0 6.0 0.00 0.00 0.00 61 1012.2
20260507071504 63 0 3.0 6.0 0.00 0.00 0.00 63 932.6
20260507071430 63 0 2.0 7.0 0.00 0.00 0.00 64 1012.4
20260507071425 63 17 2.0 7.0 0.00 0.00 0.00 64 1012.3
20260507071002 63 0 4.0 6.0 0.00 0.00 0.00 63 932.5
20260507070924 63 23 4.0 9.0 0.00 0.00 0.00 62 1012.2
20260507070808 63 4 0.0 9.0 0.00 0.00 0.00 59 1012.4
20260507070506 63 3 0.0 5.0 0.00 0.00 0.00 61 932.7
20260507070423 63 4 0.0 9.0 0.00 0.00 0.00 59 1012.4
20260507070009 63 337 1.0 6.0 0.00 0.00 0.00 64 932.6
20260507065923 63 337 1.0 6.0 0.00 0.00 0.00 57 1012.3
20260507065731 63 0 3.0 6.0 0.00 0.00 0.00 58 932.6
20260507065505 63 0 3.0 6.0 0.00 0.00 0.00 58 932.6
20260507065423 63 345 2.0 6.0 0.00 0.00 0.00 58 1012.3
20260507065300 62 11 1.0 4.0 0.00 0.00 0.00 62 1012.4
20260507065229 62 21 0.0 4.0 0.00 0.00 0.00 62 932.7
20260507065130 62 11 1.0 4.0 0.00 0.00 0.00 62 1012.4
20260507065003 62 21 0.0 4.0 0.00 0.00 0.00 62 932.7
20260507064505 62 343 0.0 5.0 0.00 0.00 0.00 61 932.7
20260507064422 62 44 0.0 5.0 0.00 0.00 0.00 62 1012.3
20260507064006 62 343 2.0 5.0 0.00 0.00 0.00 62 932.6
20260507063923 62 344 0.0 5.0 0.00 0.00 0.00 63 1012.3
20260507063504 62 41 1.0 3.0 0.00 0.00 0.00 55 932.4
20260507063426 62 0 1.0 5.0 0.00 0.00 0.00 57 1012.2
20260507063345 61 357 0.0 1.0 0.00 0.00 0.00 57 932.4
20260507062923 61 10 0.0 5.0 0.00 0.00 0.00 58 1012.2
20260507062506 60 357 0.0 4.0 0.00 0.00 0.00 62 932.4
20260507062423 60 0 0.0 4.0 0.00 0.00 0.00 62 1012.1
20260507062004 59 54 1.0 4.0 0.00 0.00 0.00 66 932.5
20260507061923 59 0 1.0 5.0 0.00 0.00 0.00 65 1012.2
20260507061505 59 337 0.0 4.0 0.00 0.00 0.00 68 932.5
20260507061422 59 333 0.0 5.0 0.00 0.00 0.00 68 1012.1
20260507061230 59 13 3.0 4.0 0.00 0.00 0.00 67 932.6
20260507061112 59 13 3.0 4.0 0.00 0.00 0.00 67 932.6
20260507060921 59 0 2.0 5.0 0.00 0.00 0.00 68 1012.3
20260507060504 59 11 0.0 0.0 0.00 0.00 0.00 68 932.6
20260507060423 59 10 0.0 0.0 0.00 0.00 0.00 69 1012.4
20260507060002 58 0 0.0 0.0 0.00 0.00 0.00 69 932.6
20260507055930 58 1 0.0 0.0 0.00 0.00 0.00 68 1012.2
20260507055828 58 0 0.0 0.0 0.00 0.00 0.00 67 1012.4
20260507055726 58 0 0.0 0.0 0.00 0.00 0.00 67 932.7
20260507055610 58 0 0.0 0.0 0.00 0.00 0.00 67 932.7
20260507055421 58 0 0.0 0.0 0.00 0.00 0.00 67 1012.4
20260507055002 58 47 0.0 0.0 0.00 0.00 0.00 66 932.6
20260507054928 58 354 0.0 0.0 0.00 0.00 0.00 67 1012.3
20260507054504 58 0 0.0 0.0 0.00 0.00 0.00 71 932.7
20260507054422 58 0 0.0 0.0 0.00 0.00 0.00 71 1012.3
20260507054000 59 3 0.0 0.0 0.00 0.00 0.00 62 932.8
20260507053922 59 17 0.0 0.0 0.00 0.00 0.00 68 1012.5
20260507053503 59 27 0.0 0.0 0.00 0.00 0.00 59 932.7
20260507053420 59 24 0.0 0.0 0.00 0.00 0.00 60 1012.4
20260507053002 59 20 0.0 0.0 0.00 0.00 0.00 59 932.7
20260507052922 59 20 0.0 0.0 0.00 0.00 0.00 59 1012.4
20260507052857 58 18 0.0 0.0 0.00 0.00 0.00 51 1012.5
20260507052531 58 18 0.0 0.0 0.00 0.00 0.00 51 1012.5
20260507052502 59 21 0.0 0.0 0.00 0.00 0.00 50 932.6
20260507052453 59 21 0.0 0.0 0.00 0.00 0.00 49 1012.4
20260507052000 58 18 0.0 0.0 0.00 0.00 0.00 51 932.6
20260507051516 58 20 0.0 0.0 0.00 0.00 0.00 51 932.6
20260507051439 58 20 0.0 0.0 0.00 0.00 0.00 50 1012.4
20260507051253 58 21 0.0 1.0 0.00 0.00 0.00 51 1012.3
20260507051222 58 20 0.0 0.0 0.00 0.00 0.00 51 932.6
20260507051110 58 20 0.0 0.0 0.00 0.00 0.00 51 932.6
20260507050934 58 21 0.0 1.0 0.00 0.00 0.00 51 1012.3
20260507050841 58 16 0.0 1.0 0.00 0.00 0.00 50 1012.2
20260507050639 58 16 0.0 1.0 0.00 0.00 0.00 50 1012.2
20260507050502 58 16 0.0 0.0 0.00 0.00 0.00 49 932.6
20260507045959 58 11 0.0 0.0 0.00 0.00 0.00 54 932.4
20260507045921 58 11 0.0 0.0 0.00 0.00 0.00 56 1012.2
20260507045731 58 11 0.0 0.0 0.00 0.00 0.00 47 932.5
20260507045503 58 11 0.0 0.0 0.00 0.00 0.00 47 932.5
20260507045422 58 11 0.0 0.0 0.00 0.00 0.00 48 1012.3
20260507045418 58 11 0.0 0.0 0.00 0.00 0.00 48 1012.2
20260507045224 57 11 0.0 0.0 0.00 0.00 0.00 48 932.5
20260507045001 57 11 0.0 0.0 0.00 0.00 0.00 48 932.5
20260507044918 57 11 0.0 0.0 0.00 0.00 0.00 47 1012.3
20260507044908 58 11 0.0 0.0 0.00 0.00 0.00 47 1012.2
20260507044725 57 11 0.0 0.0 0.00 0.00 0.00 48 932.5
20260507044607 57 11 0.0 0.0 0.00 0.00 0.00 48 932.5
20260507044411 57 11 0.0 0.0 0.00 0.00 0.00 48 1012.2
20260507044001 57 6 0.0 1.0 0.00 0.00 0.00 48 932.5
20260507043919 57 6 0.0 2.0 0.00 0.00 0.00 48 1012.3
20260507043908 57 7 0.0 2.0 0.00 0.00 0.00 48 1012.2
20260507043507 57 7 0.0 1.0 0.00 0.00 0.00 47 932.6
20260507043407 57 7 0.0 2.0 0.00 0.00 0.00 49 1012.3
20260507043000 57 7 0.0 1.0 0.00 0.00 0.00 47 932.6
20260507042909 57 7 0.0 1.0 0.00 0.00 0.00 47 1012.3
20260507042501 57 7 0.0 0.0 0.00 0.00 0.00 46 932.6
20260507042406 57 7 0.0 0.0 0.00 0.00 0.00 46 1012.3
20260507041959 56 7 0.0 0.0 0.00 0.00 0.00 47 932.6
20260507041917 56 7 0.0 0.0 0.00 0.00 0.00 47 1012.4
20260507041907 56 7 0.0 0.0 0.00 0.00 0.00 47 1012.4
20260507041730 56 7 0.0 0.0 0.00 0.00 0.00 47 1012.4
20260507041502 56 7 0.0 0.0 0.00 0.00 0.00 47 932.7
20260507041410 56 7 0.0 0.0 0.00 0.00 0.00 47 1012.5
20260507041000 56 7 0.0 0.0 0.00 0.00 0.00 47 932.7
20260507040905 56 7 0.0 0.0 0.00 0.00 0.00 47 1012.4
20260507040755 56 7 0.0 0.0 0.00 0.00 0.00 46 1012.5
20260507040627 56 7 0.0 0.0 0.00 0.00 0.00 46 1012.5
20260507040501 56 7 0.0 0.0 0.00 0.00 0.00 46 932.8
20260507035959 57 7 0.0 0.0 0.00 0.00 0.00 45 932.8
20260507035905 57 7 0.0 0.0 0.00 0.00 0.00 46 1012.6
20260507035750 57 7 0.0 0.0 0.00 0.00 0.00 45 1012.7
20260507035721 57 7 0.0 0.0 0.00 0.00 0.00 45 933.0
20260507035612 57 7 0.0 0.0 0.00 0.00 0.00 45 933.0
20260507035403 57 7 0.0 0.0 0.00 0.00 0.00 46 1012.6
20260507035000 57 7 0.0 0.0 0.00 0.00 0.00 45 932.9
20260507034917 57 7 0.0 0.0 0.00 0.00 0.00 47 1012.6
20260507034907 57 7 0.0 0.0 0.00 0.00 0.00 47 1012.7
20260507034501 58 7 0.0 0.0 0.00 0.00 0.00 45 933.1
20260507034417 57 7 0.0 0.0 0.00 0.00 0.00 46 1012.8
20260507034402 58 7 0.0 0.0 0.00 0.00 0.00 46 1012.8
20260507034258 58 7 0.0 0.0 0.00 0.00 0.00 45 1012.9
20260507034248 58 7 0.0 0.0 0.00 0.00 0.00 45 1012.8
20260507034244 58 7 0.0 0.0 0.00 0.00 0.00 45 1013.0
20260507033959 58 7 0.0 0.0 0.00 0.00 0.00 45 933.1
20260507033915 58 7 0.0 0.0 0.00 0.00 0.00 45 1013.1
20260507033907 58 7 0.0 0.0 0.00 0.00 0.00 45 1012.9
20260507033723 58 7 0.0 0.0 0.00 0.00 0.00 45 1013.0
20260507033501 58 7 0.0 0.0 0.00 0.00 0.00 45 933.1
20260507033221 58 7 0.0 0.0 0.00 0.00 0.00 45 933.2
20260507033104 58 7 0.0 0.0 0.00 0.00 0.00 45 933.2
20260507032501 58 7 0.0 0.0 0.00 0.00 0.00 45 933.2
20260507032440 58 7 0.0 0.0 0.00 0.00 0.00 44 1012.8
20260507032420 58 7 0.0 0.0 0.00 0.00 0.00 45 1013.0
20260507032228 58 7 0.0 0.0 0.00 0.00 0.00 44 933.0
20260507032038 58 7 0.0 0.0 0.00 0.00 0.00 44 1012.9
20260507031958 58 7 0.0 0.0 0.00 0.00 0.00 44 933.0
20260507031723 58 7 0.0 0.0 0.00 0.00 0.00 44 933.1
20260507031615 58 7 0.0 0.0 0.00 0.00 0.00 45 1012.9
20260507031612 58 7 0.0 0.0 0.00 0.00 0.00 44 933.1
20260507031004 58 7 0.0 0.0 0.00 0.00 0.00 44 933.2
20260507030917 58 7 0.0 0.0 0.00 0.00 0.00 44 1013.0
20260507030903 58 7 0.0 0.0 0.00 0.00 0.00 44 1012.9
20260507030505 58 7 0.0 0.0 0.00 0.00 0.00 44 933.2
20260507030404 58 7 0.0 0.0 0.00 0.00 0.00 44 1012.9
20260507030001 0 7 0.0 0.0 0.00 0.00 0.00 933.1
20260507025904 59 7 0.0 0.0 0.00 0.00 0.00 44 1013.0
20260507025718 59 7 0.0 0.0 0.00 0.00 0.00 42 933.2
20260507025605 59 7 0.0 0.0 0.00 0.00 0.00 42 933.2
20260507025419 59 7 0.0 0.0 0.00 0.00 0.00 44 1013.0
20260507025410 59 7 0.0 0.0 0.00 0.00 0.00 44 1012.9
20260507024958 59 7 0.0 0.0 0.00 0.00 0.00 42 933.1
20260507024916 59 7 0.0 0.0 0.00 0.00 0.00 43 1012.8
20260507024902 59 7 0.0 0.0 0.00 0.00 0.00 43 1012.8
20260507024458 59 7 0.0 0.0 0.00 0.00 0.00 42 932.9
20260507024417 59 7 0.0 0.0 0.00 0.00 0.00 42 1012.6
20260507024406 59 7 0.0 0.0 0.00 0.00 0.00 42 1012.6
20260507024401 59 7 0.0 0.0 0.00 0.00 0.00 42 1012.5
20260507024352 59 7 0.0 0.0 0.00 0.00 0.00 43 1012.5
20260507024223 59 7 0.0 0.0 0.00 0.00 0.00 43 1012.4
20260507023959 59 7 0.0 0.0 0.00 0.00 0.00 42 932.7
20260507023729 59 7 0.0 0.0 0.00 0.00 0.00 42 932.8
20260507023610 59 7 0.0 0.0 0.00 0.00 0.00 42 932.8
20260507022958 60 7 0.0 0.0 0.00 0.00 0.00 41 932.8
20260507022928 60 7 0.0 0.0 0.00 0.00 0.00 42 1012.6
20260507022905 60 6 0.0 0.0 0.00 0.00 0.00 42 1012.6
20260507022517 60 7 0.0 0.0 0.00 0.00 0.00 40 1012.5
20260507022506 60 7 0.0 0.0 0.00 0.00 0.00 40 1012.5
20260507022459 60 7 0.0 0.0 0.00 0.00 0.00 40 932.8
20260507022112 60 7 0.0 4.0 0.00 0.00 0.00 40 1012.4
20260507022015 60 7 0.0 3.0 0.00 0.00 0.00 40 932.6
20260507021458 60 1 0.0 3.0 0.00 0.00 0.00 40 932.5
20260507021416 60 1 0.0 6.0 0.00 0.00 0.00 40 1012.4
20260507021355 60 0 0.0 6.0 0.00 0.00 0.00 40 1012.3
20260507020957 60 1 0.0 3.0 0.00 0.00 0.00 40 932.6
20260507020915 60 1 1.0 6.0 0.00 0.00 0.00 40 1012.3
20260507020853 60 1 1.0 6.0 0.00 0.00 0.00 40 1012.4
20260507020459 60 354 0.0 1.0 0.00 0.00 0.00 39 932.6
20260507020414 60 354 0.0 2.0 0.00 0.00 0.00 40 1012.3
20260507020351 60 354 0.0 4.0 0.00 0.00 0.00 40 1012.3
20260507020217 60 354 0.0 3.0 0.00 0.00 0.00 39 932.6
20260507015916 60 354 0.0 6.0 0.00 0.00 0.00 39 1012.4
20260507015854 60 354 0.0 6.0 0.00 0.00 0.00 39 1012.5
20260507015459 60 354 1.0 3.0 0.00 0.00 0.00 40 932.4
20260507015415 60 354 1.0 6.0 0.00 0.00 0.00 39 1012.2
20260507015353 60 338 0.0 1.0 0.00 0.00 0.00 39 1012.2
20260507014957 60 329 0.0 0.0 0.00 0.00 0.00 40 932.5
20260507014915 60 329 0.0 0.0 0.00 0.00 0.00 40 1012.3
20260507014848 60 329 0.0 0.0 0.00 0.00 0.00 40 1012.4
20260507014755 60 327 0.0 0.0 0.00 0.00 0.00 41 1012.4
20260507014457 60 327 0.0 0.0 0.00 0.00 0.00 41 932.6
20260507014349 60 327 0.0 0.0 0.00 0.00 0.00 41 1012.4
20260507014228 60 327 0.0 0.0 0.00 0.00 0.00 41 932.7
20260507013957 60 327 0.0 0.0 0.00 0.00 0.00 41 932.7
20260507013914 60 327 0.0 0.0 0.00 0.00 0.00 42 1012.5
20260507013844 60 326 0.0 0.0 0.00 0.00 0.00 41 1012.6
20260507013458 60 327 0.0 1.0 0.00 0.00 0.00 41 932.9
20260507013414 59 327 0.0 1.0 0.00 0.00 0.00 41 1012.6
20260507013344 60 327 0.0 1.0 0.00 0.00 0.00 41 1012.7
20260507012957 59 329 0.0 1.0 0.00 0.00 0.00 41 933.0
20260507012915 60 327 0.0 1.0 0.00 0.00 0.00 41 1012.8
20260507012838 60 327 0.0 1.0 0.00 0.00 0.00 41 1012.8
20260507012735 59 326 0.0 1.0 0.00 0.00 0.00 41 1012.8
20260507012456 59 326 0.0 0.0 0.00 0.00 0.00 41 933.0
20260507012338 59 326 0.0 1.0 0.00 0.00 0.00 42 1012.8
20260507011956 59 323 0.0 0.0 0.00 0.00 0.00 42 933.1
20260507011913 59 324 0.0 1.0 0.00 0.00 0.00 41 1012.9
20260507011836 59 323 0.0 1.0 0.00 0.00 0.00 41 1012.8
20260507011722 59 323 0.0 0.0 0.00 0.00 0.00 44 933.1
20260507011457 59 323 0.0 0.0 0.00 0.00 0.00 44 933.1
20260507011415 59 293 0.0 0.0 0.00 0.00 0.00 44 1012.8
20260507011337 59 295 0.0 0.0 0.00 0.00 0.00 44 1012.8
20260507011217 58 293 0.0 0.0 0.00 0.00 0.00 44 933.0
20260507011002 58 293 0.0 0.0 0.00 0.00 0.00 44 933.0
20260507010913 58 293 0.0 0.0 0.00 0.00 0.00 43 1012.9
20260507010836 58 293 0.0 0.0 0.00 0.00 0.00 43 1012.8
20260507010735 58 281 0.0 0.0 0.00 0.00 0.00 44 1013.1
20260507010457 58 281 0.0 0.0 0.00 0.00 0.00 44 933.2
20260507010337 58 282 0.0 0.0 0.00 0.00 0.00 44 1013.1
20260507005956 58 281 0.0 0.0 0.00 0.00 0.00 45 933.0
20260507005914 58 281 0.0 0.0 0.00 0.00 0.00 44 1012.8
20260507005838 58 281 0.0 0.0 0.00 0.00 0.00 44 1012.8